BAW9155 EGKK-EGLL

Flight info

Callsign BAW9155
Flight time 0h 11m
Altitude 9000
Route ACORN/N0277F080 DCT BIG
Aircraft B772/H-SDE2E3FGHIJ5LORVWXY/LB1D1

Departure

Time 2026-04-15 16:21
Airport London Gatwick Airport (EGKK)

Arrival

Time 2026-04-15 16:32
Airport London Heathrow Airport (EGLL)
Time Latitude Longitude Altitude Speed Heading
2026-04-15 15:51 51.15600 -0.17565 214 ft 0 kts 329°
2026-04-15 16:09 51.15589 -0.17555 215 ft 4 kts 333°
2026-04-15 16:09 51.15564 -0.17539 205 ft 4 kts 350°
2026-04-15 16:09 51.15540 -0.17541 205 ft 4 kts 39°
2026-04-15 16:10 51.15533 -0.17557 215 ft 1 kts 77°
2026-04-15 16:10 51.15532 -0.17560 217 ft 0 kts 77°
2026-04-15 16:13 51.15542 -0.17491 205 ft 10 kts 77°
2026-04-15 16:13 51.15493 -0.17421 209 ft 12 kts 168°
2026-04-15 16:14 51.15395 -0.17390 205 ft 16 kts 167°
2026-04-15 16:14 51.15290 -0.17353 209 ft 15 kts 167°
2026-04-15 16:14 51.15204 -0.17267 209 ft 13 kts 150°
2026-04-15 16:14 51.15190 -0.17129 208 ft 16 kts 77°
2026-04-15 16:15 51.15217 -0.16943 214 ft 18 kts 77°
2026-04-15 16:15 51.15221 -0.16919 214 ft 0 kts 77°
2026-04-15 16:19 51.15223 -0.16901 209 ft 7 kts 77°
2026-04-15 16:19 51.15183 -0.16795 210 ft 15 kts 163°
2026-04-15 16:19 51.15110 -0.16891 211 ft 16 kts 258°
2026-04-15 16:19 51.15105 -0.16932 207 ft 0 kts 257°
2026-04-15 16:20 51.15081 -0.17102 210 ft 36 kts 257°
2026-04-15 16:20 51.15000 -0.17689 211 ft 71 kts 257°
2026-04-15 16:20 51.14844 -0.18801 213 ft 133 kts 247°
2026-04-15 16:21 51.14657 -0.20215 920 ft 132 kts 256°
2026-04-15 16:21 51.14579 -0.21739 1673 ft 142 kts 259°
2026-04-15 16:21 51.14521 -0.23490 2040 ft 174 kts 261°
2026-04-15 16:21 51.14486 -0.25589 2389 ft 209 kts 267°
2026-04-15 16:22 51.14943 -0.27959 3237 ft 231 kts 299°
2026-04-15 16:22 51.16181 -0.29647 4334 ft 257 kts 322°
2026-04-15 16:22 51.17944 -0.30565 4602 ft 272 kts 350°
2026-04-15 16:22 51.19886 -0.30127 5477 ft 298 kts 16°
2026-04-15 16:23 51.21702 -0.28415 5828 ft 310 kts 38°
2026-04-15 16:23 51.23345 -0.26161 5974 ft 312 kts 41°
2026-04-15 16:23 51.24958 -0.23848 6009 ft 312 kts 41°
2026-04-15 16:23 51.26561 -0.21523 6008 ft 311 kts 41°
2026-04-15 16:24 51.28159 -0.19203 6002 ft 311 kts 41°
2026-04-15 16:24 51.29768 -0.16878 6007 ft 312 kts 41°
2026-04-15 16:24 51.31377 -0.14556 6001 ft 312 kts 41°
2026-04-15 16:24 51.33119 -0.12524 5956 ft 307 kts 21°
2026-04-15 16:25 51.35107 -0.11652 5836 ft 290 kts
2026-04-15 16:25 51.37058 -0.11220 5700 ft 274 kts
2026-04-15 16:25 51.38877 -0.10844 5569 ft 254 kts
2026-04-15 16:25 51.40562 -0.10482 5441 ft 236 kts
2026-04-15 16:26 51.42140 -0.10124 5272 ft 226 kts
2026-04-15 16:26 51.43680 -0.09758 5090 ft 222 kts
2026-04-15 16:26 51.45159 -0.09814 4852 ft 204 kts 330°
2026-04-15 16:26 51.46296 -0.10946 4559 ft 189 kts 307°
2026-04-15 16:27 51.47147 -0.12572 4042 ft 192 kts 291°
2026-04-15 16:27 51.47658 -0.14523 3684 ft 187 kts 276°
2026-04-15 16:27 51.47807 -0.16546 3435 ft 178 kts 263°
2026-04-15 16:27 51.47805 -0.18495 3188 ft 172 kts 263°
2026-04-15 16:28 51.47806 -0.20371 2947 ft 164 kts 263°
2026-04-15 16:28 51.47806 -0.22132 2729 ft 152 kts 262°
2026-04-15 16:28 51.47804 -0.23796 2528 ft 147 kts 262°
2026-04-15 16:28 51.47801 -0.25427 2332 ft 146 kts 262°
2026-04-15 16:29 51.47799 -0.27054 2135 ft 146 kts 262°
2026-04-15 16:29 51.47796 -0.28674 1927 ft 145 kts 262°
2026-04-15 16:29 51.47793 -0.30292 1743 ft 145 kts 262°
2026-04-15 16:29 51.47791 -0.31909 1541 ft 145 kts 262°
2026-04-15 16:30 51.47788 -0.33521 1366 ft 145 kts 262°
2026-04-15 16:30 51.47784 -0.35160 1144 ft 149 kts 262°
2026-04-15 16:30 51.47784 -0.36746 950 ft 131 kts 262°
2026-04-15 16:30 51.47782 -0.38133 774 ft 120 kts 260°
2026-04-15 16:31 51.47776 -0.39494 606 ft 122 kts 259°
2026-04-15 16:31 51.47773 -0.40837 435 ft 120 kts 258°
2026-04-15 16:31 51.47767 -0.42216 282 ft 125 kts 259°
2026-04-15 16:31 51.47764 -0.43598 116 ft 123 kts 260°
2026-04-15 16:32 51.47756 -0.44821 89 ft 89 kts 266°
2026-04-15 16:32 51.47757 -0.45472 87 ft 52 kts 270°
2026-04-15 16:32 51.47718 -0.45882 87 ft 26 kts 219°
2026-04-15 16:32 51.47647 -0.45976 87 ft 0 kts 220°
2026-04-15 16:33 51.47646 -0.45977 87 ft 0 kts 220°
2026-04-15 16:33 51.47645 -0.45979 86 ft 1 kts 220°
2026-04-15 16:34 51.47620 -0.46014 87 ft 8 kts 221°
2026-04-15 16:34 51.47594 -0.46092 87 ft 10 kts 263°
2026-04-15 16:34 51.47593 -0.46251 87 ft 17 kts 269°
2026-04-15 16:34 51.47592 -0.46450 87 ft 18 kts 270°
2026-04-15 16:35 51.47592 -0.46616 87 ft 9 kts 269°
2026-04-15 16:35 51.47592 -0.46688 87 ft 0 kts 269°
2026-04-15 16:36 51.47592 -0.46703 87 ft 5 kts 269°
2026-04-15 16:36 51.47591 -0.46811 87 ft 14 kts 268°
2026-04-15 16:36 51.47583 -0.46988 91 ft 18 kts 270°
2026-04-15 16:37 51.47582 -0.47185 89 ft 14 kts 270°
2026-04-15 16:37 51.47576 -0.47318 88 ft 11 kts 247°
2026-04-15 16:37 51.47510 -0.47358 87 ft 11 kts 181°
2026-04-15 16:37 51.47423 -0.47358 87 ft 13 kts 180°
2026-04-15 16:38 51.47323 -0.47357 87 ft 15 kts 179°
2026-04-15 16:38 51.47247 -0.47356 87 ft 4 kts 179°
2026-04-15 16:38 51.47207 -0.47356 87 ft 7 kts 179°
2026-04-15 16:38 51.47150 -0.47355 88 ft 9 kts 180°
2026-04-15 16:39 51.47081 -0.47355 90 ft 10 kts 180°
2026-04-15 16:39 51.47056 -0.47383 91 ft 4 kts 269°
2026-04-15 16:39 51.47055 -0.47437 87 ft 6 kts 268°
2026-04-15 16:39 51.47054 -0.47496 87 ft 4 kts 270°
2026-04-15 16:40 51.47054 -0.47509 87 ft 1 kts 270°
2026-04-15 16:40 51.47054 -0.47517 87 ft 0 kts 270°